Zurück zum Katalog

FENGYUN 1C DEB

AktivSSO
NORAD 31351·DEBRIS·🇨🇳 China

Gestartet May 10, 1999 von Taiyuan Satellite Launch Center

Loading…

Nächste Überflüge (nächste 24 Stunden)

TLE

AlterndSource: Space-Track

Epoche: Sep 5, 2026, 09:43 UTC

1 31351U 99025BRF 26248.40521248  .00000253  00000-0  16954-3 0  9994
2 31351  98.8197 233.3839 0093256  21.8469 338.6637 14.07207152651257

Verfolge FENGYUN 1C DEB in Echtzeit mit AllMySat

Download on the App Store